sat.trackr.live / text

‹ back to catalog

STARLINK-30132

NORAD 56703 · 2023-067R

PAYLOAD ACTIVE UNKNOWN

§ Identity

Operator
Country
US
Launch date
2023-05-19
Launch site
AFETR
Launch vehicle
Mass (kg)
RCS (m²)

Purposes: comms

External: N2YO · Heavens-Above · Gunter

§ Orbital elements

Epoch: 2026-09-20T15:54:29.952288Z

Period
94.27 min
Inclination
42.9968°
Eccentricity
0.0000965
Mean motion
15.27583184 rev/d
Perigee alt
482.4 km
Apogee alt
483.7 km
Semi-major
6,861.2 km
B*
7.9459e-5
RAAN
252.9319°
Arg perigee
277.2314°
Mean anomaly
82.8428°
Rev number
18,548

§ Raw data

STARLINK-301321 56703U 23067R   26263.66284667  .00001925  00000+0  79459-4 0  99972 56703  42.9968 252.9319 0000965 277.2314  82.8428 15.27583184185480

JSON: /api/v1/satellites/56703 · /tle

For live sub-satellite position, see the globe view (requires WebGL).

§ Visibility from observer

Set your observer location to see the next 7 days of passes ≥ 10°. The values pass through the URL so the page stays shareable.

No JS? Fill the form by hand. The geolocation button needs JavaScript.